Time,TemperatureF,DewpointF,PressureIn,WindDirection,WindDirectionDegrees,WindSpeedMPH,WindSpeedGustMPH,Humidity,HourlyPrecipIn,Conditions,Clouds,dailyrainin,SoftwareType,DateUTC
2013-11-08 00:01:00,35.1,29.6,30.83,WNW,296,6.0,6.0,80,0.00,-RA,FEW,0.00,WeatherDisplay:10.37,2013-11-08 05:01:00,
2013-11-08 00:03:00,35.1,29.6,30.83,NW,321,5.8,5.8,80,0.00,-RA,FEW,0.00,WeatherDisplay:10.37,2013-11-08 05:03:00,
2013-11-08 00:04:00,35.1,29.6,30.83,NNW,343,5.8,5.8,80,0.00,-RA,FEW,0.00,WeatherDisplay:10.37,2013-11-08 05:04:00,
2013-11-08 00:05:00,35.1,29.6,30.83,NW,304,5.0,5.0,80,0.00,-RA,FEW,0.00,WeatherDisplay:10.37,2013-11-08 05:05:00,
2013-11-08 00:09:00,35.1,29.6,30.83,WNW,295,5.8,5.8,80,0.00,-RA,FEW,0.00,WeatherDisplay:10.37,2013-11-08 05:09:00,
2013-11-08 00:11:00,35.1,29.6,30.83,NW,313,5.8,5.8,80,0.00,-RA,FEW,0.00,WeatherDisplay:10.37,2013-11-08 05:11:00,
2013-11-08 00:16:00,35.1,29.2,30.83,North,9,6.9,6.9,79,0.00,-RA,FEW,0.00,WeatherDisplay:10.37,2013-11-08 05:16:00,
2013-11-08 00:21:00,35.2,29.3,30.84,NNW,336,4.6,4.6,79,0.00,-RA,FEW,0.00,WeatherDisplay:10.37,2013-11-08 05:21:00,
2013-11-08 00:26:00,35.3,29.1,30.84,West,271,4.6,4.6,78,0.00,-RA,FEW,0.00,WeatherDisplay:10.37,2013-11-08 05:26:00,
2013-11-08 00:31:00,35.4,29.2,30.84,NW,326,5.8,5.8,78,0.00,-RA,FEW,0.00,WeatherDisplay:10.37,2013-11-08 05:31:00,
2013-11-08 00:36:00,35.4,29.2,30.84,NNW,328,4.6,4.7,78,0.00,-RA,FEW,0.00,WeatherDisplay:10.37,2013-11-08 05:36:00,
2013-11-08 00:41:00,35.4,28.9,30.84,NNW,341,4.6,4.6,77,0.00,-RA,FEW,0.00,WeatherDisplay:10.37,2013-11-08 05:41:00,
2013-11-08 00:46:00,35.3,29.1,30.84,NNW,333,3.5,3.5,78,0.00,-RA,FEW,0.00,WeatherDisplay:10.37,2013-11-08 05:46:00,
2013-11-08 00:51:00,35.2,29.0,30.84,WNW,292,2.3,2.3,78,0.00,-RA,FEW,0.00,WeatherDisplay:10.37,2013-11-08 05:51:00,
2013-11-08 00:56:00,35.2,29.0,30.84,WNW,289,6.0,6.0,78,0.00,-RA,FEW,0.00,WeatherDisplay:10.37,2013-11-08 05:56:00,
2013-11-08 01:01:00,35.2,29.0,30.84,NNW,332,6.9,6.9,78,0.00,-RA,FEW,0.00,WeatherDisplay:10.37,2013-11-08 06:01:00,
2013-11-08 01:06:00,35.1,28.6,30.84,WSW,242,4.6,4.6,77,0.00,-RA,FEW,0.00,WeatherDisplay:10.37,2013-11-08 06:06:00,
2013-11-08 01:11:00,35.1,28.6,30.84,NNW,332,3.5,3.5,77,0.00,-RA,FEW,0.00,WeatherDisplay:10.37,2013-11-08 06:11:00,
2013-11-08 01:16:00,35.1,28.6,30.84,WNW,290,4.6,4.6,77,0.00,-RA,FEW,0.00,WeatherDisplay:10.37,2013-11-08 06:16:00,
2013-11-08 01:21:00,35.1,28.6,30.84,WNW,293,4.0,4.0,77,0.00,-RA,FEW,0.00,WeatherDisplay:10.37,2013-11-08 06:21:00,
2013-11-08 01:26:00,35.1,28.6,30.84,NW,304,6.9,6.9,77,0.00,-RA,FEW,0.00,WeatherDisplay:10.37,2013-11-08 06:26:00,
2013-11-08 01:31:00,35.1,28.6,30.84,NW,317,3.5,3.5,77,0.00,-RA,FEW,0.00,WeatherDisplay:10.37,2013-11-08 06:31:00,
2013-11-08 01:36:00,35.0,28.5,30.84,West,281,3.0,3.0,77,0.00,-RA,FEW,0.00,WeatherDisplay:10.37,2013-11-08 06:36:00,
2013-11-08 01:41:00,35.0,28.5,30.84,SW,219,3.5,3.5,77,0.00,-RA,FEW,0.00,WeatherDisplay:10.37,2013-11-08 06:41:00,
2013-11-08 01:46:00,34.8,28.3,30.84,WNW,290,3.5,3.5,77,0.00,-RA,FEW,0.00,WeatherDisplay:10.37,2013-11-08 06:46:00,
2013-11-08 01:51:00,34.7,28.2,30.84,WNW,287,2.3,2.3,77,0.00,-RA,FEW,0.00,WeatherDisplay:10.37,2013-11-08 06:51:00,
2013-11-08 01:56:00,34.6,28.1,30.84,West,259,2.3,2.3,77,0.00,-RA,FEW,0.00,WeatherDisplay:10.37,2013-11-08 06:56:00,
2013-11-08 02:01:00,34.5,28.0,30.85,WNW,294,3.5,3.5,77,0.00,-RA,FEW,0.00,WeatherDisplay:10.37,2013-11-08 07:01:00,
2013-11-08 02:06:00,34.4,27.9,30.85,West,281,2.3,2.3,77,0.00,-RA,FEW,0.00,WeatherDisplay:10.37,2013-11-08 07:06:00,
2013-11-08 02:11:00,34.3,27.8,30.85,South,191,3.5,3.5,77,0.00,-RA,FEW,0.00,WeatherDisplay:10.37,2013-11-08 07:11:00,
2013-11-08 02:16:00,34.1,28.0,30.85,WSW,239,2.3,2.3,78,0.00,-RA,FEW,0.00,WeatherDisplay:10.37,2013-11-08 07:16:00,
2013-11-08 02:21:00,33.9,28.1,30.85,WNW,291,3.5,3.5,79,0.00,-RA,FEW,0.00,WeatherDisplay:10.37,2013-11-08 07:21:00,
2013-11-08 02:26:00,33.7,27.9,30.86,West,274,4.0,4.0,79,0.00,-RA,FEW,0.00,WeatherDisplay:10.37,2013-11-08 07:26:00,
2013-11-08 02:31:00,33.5,28.0,30.86,West,271,3.5,3.5,80,0.00,-RA,FEW,0.00,WeatherDisplay:10.37,2013-11-08 07:31:00,
2013-11-08 02:36:00,33.4,27.9,30.86,WSW,256,3.5,3.5,80,0.00,-RA,FEW,0.00,WeatherDisplay:10.37,2013-11-08 07:36:00,
2013-11-08 02:41:00,33.4,28.2,30.86,WSW,255,3.5,3.5,81,0.00,-RA,FEW,0.00,WeatherDisplay:10.37,2013-11-08 07:41:00,
2013-11-08 02:46:00,33.3,28.1,30.86,WNW,285,4.6,4.6,81,0.00,-RA,FEW,0.00,WeatherDisplay:10.37,2013-11-08 07:46:00,
2013-11-08 02:51:00,33.2,28.3,30.86,WSW,240,6.0,6.0,82,0.00,-RA,FEW,0.00,WeatherDisplay:10.37,2013-11-08 07:51:00,
2013-11-08 02:56:00,33.2,28.3,30.86,WNW,290,6.0,6.0,82,0.00,-RA,FEW,0.00,WeatherDisplay:10.37,2013-11-08 07:56:00,
2013-11-08 03:01:00,33.1,28.5,30.87,WSW,242,5.8,5.8,83,0.00,-RA,FEW,0.00,WeatherDisplay:10.37,2013-11-08 08:01:00,
2013-11-08 03:06:00,33.0,28.7,30.87,West,276,6.9,6.9,84,0.00,-RA,FEW,0.00,WeatherDisplay:10.37,2013-11-08 08:06:00,
2013-11-08 03:11:00,33.0,28.4,30.87,WNW,293,3.5,3.5,83,0.00,-RA,FEW,0.00,WeatherDisplay:10.37,2013-11-08 08:11:00,
2013-11-08 03:16:00,32.9,28.6,30.87,NW,312,3.5,3.5,84,0.00,-RA,FEW,0.00,WeatherDisplay:10.37,2013-11-08 08:16:00,
2013-11-08 03:21:00,32.7,28.4,30.87,SW,219,3.5,3.5,84,0.00,-RA,FEW,0.00,WeatherDisplay:10.37,2013-11-08 08:21:00,
2013-11-08 03:26:00,32.7,28.4,30.87,WNW,284,3.5,3.5,84,0.00,-RA,FEW,0.00,WeatherDisplay:10.37,2013-11-08 08:26:00,
2013-11-08 03:31:00,32.6,28.3,30.87,WNW,285,4.6,4.6,84,0.00,-RA,FEW,0.00,WeatherDisplay:10.37,2013-11-08 08:31:00,
2013-11-08 03:36:00,32.5,28.5,30.87,NW,308,3.5,3.5,85,0.00,-RA,FEW,0.00,WeatherDisplay:10.37,2013-11-08 08:36:00,
2013-11-08 03:41:00,32.5,28.5,30.88,WNW,300,6.0,6.0,85,0.00,-RA,FEW,0.00,WeatherDisplay:10.37,2013-11-08 08:41:00,
2013-11-08 03:46:00,32.6,28.6,30.88,West,273,5.0,5.0,85,0.00,-RA,FEW,0.00,WeatherDisplay:10.37,2013-11-08 08:46:00,
2013-11-08 03:51:00,32.7,28.7,30.88,WNW,290,6.9,6.9,85,0.00,-RA,FEW,0.00,WeatherDisplay:10.37,2013-11-08 08:51:00,
2013-11-08 03:56:00,32.7,28.4,30.88,WNW,285,4.6,4.6,84,0.00,-RA,FEW,0.00,WeatherDisplay:10.37,2013-11-08 08:56:00,
2013-11-08 04:01:00,32.7,28.4,30.88,WNW,291,8.1,8.1,84,0.00,-RA,FEW,0.00,WeatherDisplay:10.37,2013-11-08 09:01:00,
2013-11-08 04:06:00,32.7,28.4,30.88,WNW,301,5.0,5.0,84,0.00,-RA,FEW,0.00,WeatherDisplay:10.37,2013-11-08 09:06:00,
2013-11-08 04:11:00,32.7,28.4,30.88,WNW,294,3.0,3.0,84,0.00,-RA,FEW,0.00,WeatherDisplay:10.37,2013-11-08 09:11:00,
2013-11-08 04:16:00,32.7,28.4,30.88,WNW,295,4.6,4.6,84,0.00,-RA,FEW,0.00,WeatherDisplay:10.37,2013-11-08 09:16:00,
2013-11-08 04:21:00,32.6,28.3,30.88,West,280,3.5,3.5,84,0.00,-RA,FEW,0.00,WeatherDisplay:10.37,2013-11-08 09:21:00,
2013-11-08 04:26:00,32.6,28.3,30.88,SW,235,3.5,3.5,84,0.00,-RA,FEW,0.00,WeatherDisplay:10.37,2013-11-08 09:26:00,
2013-11-08 04:31:00,32.5,28.2,30.89,WNW,293,3.5,3.5,84,0.00,-RA,FEW,0.00,WeatherDisplay:10.37,2013-11-08 09:31:00,
2013-11-08 04:36:00,32.5,28.2,30.89,WNW,293,4.6,4.6,84,0.00,-RA,FEW,0.00,WeatherDisplay:10.37,2013-11-08 09:36:00,
2013-11-08 04:41:00,32.5,28.2,30.89,WNW,295,5.8,5.8,84,0.00,-RA,FEW,0.00,WeatherDisplay:10.37,2013-11-08 09:41:00,
2013-11-08 04:46:00,32.4,28.1,30.89,West,259,6.9,6.9,84,0.00,-RA,FEW,0.00,WeatherDisplay:10.37,2013-11-08 09:46:00,
2013-11-08 04:51:00,32.5,28.2,30.89,WNW,293,3.5,3.5,84,0.00,-RA,FEW,0.00,WeatherDisplay:10.37,2013-11-08 09:51:00,
2013-11-08 04:56:00,32.4,28.1,30.89,WNW,284,3.5,3.5,84,0.00,-RA,FEW,0.00,WeatherDisplay:10.37,2013-11-08 09:56:00,
2013-11-08 05:01:00,32.3,28.0,30.90,WNW,289,3.5,3.5,84,0.00,-RA,FEW,0.00,WeatherDisplay:10.37,2013-11-08 10:01:00,
2013-11-08 05:06:00,32.3,28.0,30.90,NW,312,3.5,3.5,84,0.00,-RA,FEW,0.00,WeatherDisplay:10.37,2013-11-08 10:06:00,
2013-11-08 05:11:00,32.2,28.2,30.90,NW,312,3.5,3.5,85,0.00,-RA,FEW,0.00,WeatherDisplay:10.37,2013-11-08 10:11:00,
2013-11-08 05:16:00,32.1,28.1,30.90,West,263,3.5,3.5,85,0.00,-RA,FEW,0.00,WeatherDisplay:10.37,2013-11-08 10:16:00,
2013-11-08 05:21:00,32.1,28.1,30.90,WSW,245,3.5,3.5,85,0.00,-RA,FEW,0.00,WeatherDisplay:10.37,2013-11-08 10:21:00,
2013-11-08 05:26:00,32.0,28.0,30.90,NW,322,4.6,4.6,85,0.00,-RA,FEW,0.00,WeatherDisplay:10.37,2013-11-08 10:26:00,
2013-11-08 05:31:00,32.0,28.0,30.90,West,260,4.0,4.0,85,0.00,-RA,FEW,0.00,WeatherDisplay:10.37,2013-11-08 10:31:00,
2013-11-08 05:36:00,32.0,28.0,30.90,WNW,291,2.3,2.3,85,0.00,-RA,FEW,0.00,WeatherDisplay:10.37,2013-11-08 10:36:00,
2013-11-08 05:41:00,32.0,28.3,30.91,NE,36,3.5,3.5,86,0.00,-RA,FEW,0.00,WeatherDisplay:10.37,2013-11-08 10:41:00,
2013-11-08 05:46:00,32.0,28.3,30.91,WNW,295,4.0,4.0,86,0.00,-RA,FEW,0.00,WeatherDisplay:10.37,2013-11-08 10:46:00,
2013-11-08 05:51:00,32.1,28.1,30.91,West,273,3.5,3.5,85,0.00,-RA,FEW,0.00,WeatherDisplay:10.37,2013-11-08 10:51:00,
2013-11-08 05:56:00,32.1,28.1,30.91,WNW,295,6.0,6.0,85,0.00,-RA,FEW,0.00,WeatherDisplay:10.37,2013-11-08 10:56:00,
2013-11-08 06:01:00,32.2,28.2,30.91,WNW,295,3.5,3.5,85,0.00,-RA,FEW,0.00,WeatherDisplay:10.37,2013-11-08 11:01:00,
2013-11-08 06:06:00,32.1,28.1,30.91,WNW,293,3.5,3.5,85,0.00,-RA,FEW,0.00,WeatherDisplay:10.37,2013-11-08 11:06:00,
2013-11-08 06:11:00,32.2,28.2,30.92,NW,319,5.8,5.8,85,0.00,-RA,FEW,0.00,WeatherDisplay:10.37,2013-11-08 11:11:00,
2013-11-08 06:16:00,32.2,28.2,30.92,NW,312,4.6,4.6,85,0.00,-RA,FEW,0.00,WeatherDisplay:10.37,2013-11-08 11:16:00,
2013-11-08 06:21:00,32.3,28.3,30.92,NW,314,2.3,2.3,85,0.00,-RA,FEW,0.00,WeatherDisplay:10.37,2013-11-08 11:21:00,
2013-11-08 06:26:00,32.2,28.2,30.92,WSW,242,3.5,3.5,85,0.00,-RA,FEW,0.00,WeatherDisplay:10.37,2013-11-08 11:26:00,
2013-11-08 06:31:00,32.0,28.0,30.93,West,263,2.3,2.3,85,0.00,-RA,FEW,0.00,WeatherDisplay:10.37,2013-11-08 11:31:00,
2013-11-08 06:36:00,32.0,28.3,30.93,West,270,3.5,3.5,86,0.00,-RA,FEW,0.00,WeatherDisplay:10.37,2013-11-08 11:36:00,
2013-11-08 06:41:00,31.8,28.1,30.93,West,263,3.5,3.5,86,0.00,-RA,FEW,0.00,WeatherDisplay:10.37,2013-11-08 11:41:00,
2013-11-08 06:46:00,31.8,28.1,30.93,West,278,3.5,3.5,86,0.00,-RA,FEW,0.00,WeatherDisplay:10.37,2013-11-08 11:46:00,
2013-11-08 06:51:00,31.7,28.3,30.94,WNW,300,3.5,3.5,87,0.00,-RA,FEW,0.00,WeatherDisplay:10.37,2013-11-08 11:51:00,
2013-11-08 06:56:00,31.6,28.2,30.94,WNW,300,2.0,2.1,87,0.00,-RA,FEW,0.00,WeatherDisplay:10.37,2013-11-08 11:56:00,
2013-11-08 07:01:00,31.6,28.2,30.94,West,276,2.3,2.3,87,0.00,-RA,FEW,0.00,WeatherDisplay:10.37,2013-11-08 12:01:00,
2013-11-08 07:06:00,31.6,28.2,30.94,West,281,3.5,3.5,87,0.00,-RA,FEW,0.00,WeatherDisplay:10.37,2013-11-08 12:06:00,
2013-11-08 07:11:00,31.6,28.2,30.94,WSW,240,2.3,2.3,87,0.00,-RA,FEW,0.00,WeatherDisplay:10.37,2013-11-08 12:11:00,
2013-11-08 07:16:00,31.6,28.5,30.95,WNW,289,3.5,3.5,88,0.00,-RA,FEW,0.00,WeatherDisplay:10.37,2013-11-08 12:16:00,
2013-11-08 07:21:00,31.7,28.3,30.95,West,274,3.5,3.5,87,0.00,-RA,FEW,0.00,WeatherDisplay:10.37,2013-11-08 12:21:00,
2013-11-08 07:26:00,31.8,28.4,30.95,WNW,302,2.3,2.3,87,0.00,-RA,FEW,0.00,WeatherDisplay:10.37,2013-11-08 12:26:00,
2013-11-08 07:31:00,31.9,28.5,30.95,West,273,3.5,3.5,87,0.00,-RA,FEW,0.00,WeatherDisplay:10.37,2013-11-08 12:31:00,
2013-11-08 07:36:00,32.0,28.6,30.96,NW,315,3.5,3.5,87,0.00,-RA,FEW,0.00,WeatherDisplay:10.37,2013-11-08 12:36:00,
2013-11-08 07:41:00,32.1,28.4,30.96,WNW,295,3.5,3.5,86,0.00,-RA,FEW,0.00,WeatherDisplay:10.37,2013-11-08 12:41:00,
2013-11-08 07:46:00,32.3,28.6,30.96,NW,307,2.0,2.0,86,0.00,-RA,FEW,0.00,WeatherDisplay:10.37,2013-11-08 12:46:00,
2013-11-08 07:51:00,32.5,28.8,30.97,NW,312,3.5,3.5,86,0.00,-RA,FEW,0.00,WeatherDisplay:10.37,2013-11-08 12:51:00,
2013-11-08 07:56:00,32.7,28.7,30.97,NW,319,3.5,3.5,85,0.00,-RA,FEW,0.00,WeatherDisplay:10.37,2013-11-08 12:56:00,
2013-11-08 08:01:00,33.0,29.0,30.97,WNW,296,3.5,3.5,85,0.00,-RA,FEW,0.00,WeatherDisplay:10.37,2013-11-08 13:01:00,
2013-11-08 08:06:00,33.3,29.0,30.97,NW,321,3.5,3.5,84,0.00,-RA,FEW,0.00,WeatherDisplay:10.37,2013-11-08 13:06:00,
2013-11-08 08:11:00,33.7,29.4,30.97,NW,312,5.0,5.0,84,0.00,-RA,FEW,0.00,WeatherDisplay:10.37,2013-11-08 13:11:00,
2013-11-08 08:16:00,34.1,29.5,30.97,WNW,300,3.5,3.5,83,0.00,-RA,FEW,0.00,WeatherDisplay:10.37,2013-11-08 13:16:00,
2013-11-08 08:21:00,34.5,29.3,30.98,WNW,290,4.0,4.0,81,0.00,-RA,FEW,0.00,WeatherDisplay:10.37,2013-11-08 13:21:00,
2013-11-08 08:26:00,35.0,29.8,30.98,West,276,4.6,4.6,81,0.00,-RA,FEW,0.00,WeatherDisplay:10.37,2013-11-08 13:26:00,
2013-11-08 08:31:00,35.5,29.9,30.98,WSW,249,3.5,3.5,80,0.00,-RA,FEW,0.00,WeatherDisplay:10.37,2013-11-08 13:31:00,
2013-11-08 08:36:00,36.1,30.2,30.98,WNW,297,3.5,3.5,79,0.00,-RA,FEW,0.00,WeatherDisplay:10.37,2013-11-08 13:36:00,
2013-11-08 08:41:00,36.5,30.3,30.98,NW,311,3.5,3.5,78,0.00,-RA,FEW,0.00,WeatherDisplay:10.37,2013-11-08 13:41:00,
2013-11-08 08:46:00,36.6,30.1,30.99,West,273,4.6,4.6,77,0.00,-RA,FEW,0.00,WeatherDisplay:10.37,2013-11-08 13:46:00,
2013-11-08 08:51:00,36.8,30.3,30.99,West,274,3.5,3.5,77,0.00,-RA,FEW,0.00,WeatherDisplay:10.37,2013-11-08 13:51:00,
2013-11-08 08:56:00,36.8,30.3,30.99,WSW,244,4.0,4.0,77,0.00,-RA,FEW,0.00,WeatherDisplay:10.37,2013-11-08 13:56:00,
2013-11-08 09:01:00,36.8,30.3,30.99,WSW,253,2.3,2.3,77,0.00,-RA,FEW,0.00,WeatherDisplay:10.37,2013-11-08 14:01:00,
2013-11-08 09:06:00,36.7,29.8,30.99,West,267,3.5,3.5,76,0.00,-RA,FEW,0.00,WeatherDisplay:10.37,2013-11-08 14:06:00,
2013-11-08 09:11:00,37.1,30.2,30.99,WNW,295,4.6,4.6,76,0.00,-RA,FEW,0.00,WeatherDisplay:10.37,2013-11-08 14:11:00,
2013-11-08 09:16:00,37.3,30.1,31.00,South,188,5.8,5.8,75,0.00,-RA,FEW,0.00,WeatherDisplay:10.37,2013-11-08 14:16:00,
2013-11-08 09:21:00,37.6,30.7,31.00,SW,236,8.0,8.0,76,0.00,-RA,FEW,0.00,WeatherDisplay:10.37,2013-11-08 14:21:00,
2013-11-08 09:26:00,37.7,30.5,31.00,WSW,252,2.3,2.6,75,0.00,-RA,FEW,0.00,WeatherDisplay:10.37,2013-11-08 14:26:00,
2013-11-08 09:31:00,37.9,30.7,31.00,WNW,296,5.8,5.8,75,0.00,-RA,FEW,0.00,WeatherDisplay:10.37,2013-11-08 14:31:00,
2013-11-08 09:36:00,38.1,30.9,30.99,West,270,4.0,4.0,75,0.00,-RA,FEW,0.00,WeatherDisplay:10.37,2013-11-08 14:36:00,
2013-11-08 09:41:00,38.4,30.8,30.99,WNW,289,4.6,4.6,74,0.00,-RA,FEW,0.00,WeatherDisplay:10.37,2013-11-08 14:41:00,
2013-11-08 09:46:00,38.7,30.8,30.99,West,263,8.1,8.1,73,0.00,-RA,FEW,0.00,WeatherDisplay:10.37,2013-11-08 14:46:00,
2013-11-08 09:51:00,38.9,30.6,30.99,WNW,285,6.9,6.9,72,0.00,-RA,FEW,0.00,WeatherDisplay:10.37,2013-11-08 14:51:00,
2013-11-08 09:56:00,39.0,30.4,30.99,WNW,284,4.6,4.6,71,0.00,-RA,FEW,0.00,WeatherDisplay:10.37,2013-11-08 14:56:00,
2013-11-08 10:01:00,39.4,30.4,30.99,West,281,5.8,5.8,70,0.00,-RA,FEW,0.00,WeatherDisplay:10.37,2013-11-08 15:01:00,
2013-11-08 10:07:00,39.6,30.3,31.00,NW,306,9.2,9.2,69,0.00,-RA,FEW,0.00,WeatherDisplay:10.37,2013-11-08 15:07:00,
2013-11-08 10:12:00,39.9,30.2,31.00,West,259,7.0,7.0,68,0.00,-RA,FEW,0.00,WeatherDisplay:10.37,2013-11-08 15:12:00,
2013-11-08 10:17:00,40.1,30.0,31.00,South,184,5.8,5.8,67,0.00,-RA,FEW,0.00,WeatherDisplay:10.37,2013-11-08 15:17:00,
2013-11-08 10:22:00,40.1,29.6,31.00,West,277,5.8,5.8,66,0.00,-RA,FEW,0.00,WeatherDisplay:10.37,2013-11-08 15:22:00,
2013-11-08 10:27:00,40.4,29.6,31.00,NW,314,11.5,11.5,65,0.00,-RA,FEW,0.00,WeatherDisplay:10.37,2013-11-08 15:27:00,
2013-11-08 10:32:00,40.3,29.8,31.00,NNW,338,5.0,5.0,66,0.00,-RA,FEW,0.00,WeatherDisplay:10.37,2013-11-08 15:32:00,
2013-11-08 10:37:00,40.6,29.4,31.00,NNW,347,8.0,8.0,64,0.00,-RA,FEW,0.00,WeatherDisplay:10.37,2013-11-08 15:37:00,
2013-11-08 10:42:00,40.8,29.6,31.00,NNW,345,6.0,6.0,64,0.00,-RA,FEW,0.00,WeatherDisplay:10.37,2013-11-08 15:42:00,
2013-11-08 10:47:00,40.8,29.9,31.00,NNW,337,6.9,6.9,65,0.00,-RA,FEW,0.00,WeatherDisplay:10.37,2013-11-08 15:47:00,
2013-11-08 10:52:00,41.4,30.1,31.01,NNW,340,6.0,6.0,64,0.00,-RA,FEW,0.00,WeatherDisplay:10.37,2013-11-08 15:52:00,
2013-11-08 10:57:00,41.2,29.2,31.01,NNW,345,6.9,6.9,62,0.00,-RA,FEW,0.00,WeatherDisplay:10.37,2013-11-08 15:57:00,
2013-11-08 11:02:00,41.5,29.4,31.01,NNW,337,6.9,7.5,62,0.00,-RA,FEW,0.00,WeatherDisplay:10.37,2013-11-08 16:02:00,
2013-11-08 11:07:00,41.5,28.6,31.01,NW,305,9.2,9.2,60,0.00,-RA,FEW,0.00,WeatherDisplay:10.37,2013-11-08 16:07:00,
2013-11-08 11:12:00,41.8,28.5,31.01,NW,325,11.5,11.5,59,0.00,-RA,FEW,0.00,WeatherDisplay:10.37,2013-11-08 16:12:00,
2013-11-08 11:17:00,41.3,28.0,31.01,West,264,9.2,9.2,59,0.00,-RA,FEW,0.00,WeatherDisplay:10.37,2013-11-08 16:17:00,
2013-11-08 11:22:00,41.6,28.3,31.01,WNW,293,8.1,8.1,59,0.00,-RA,FEW,0.00,WeatherDisplay:10.37,2013-11-08 16:22:00,
2013-11-08 11:27:00,41.6,28.3,31.00,NNW,343,10.4,10.4,59,0.00,-RA,FEW,0.00,WeatherDisplay:10.37,2013-11-08 16:27:00,
2013-11-08 11:32:00,42.0,29.1,31.00,NNW,337,9.2,9.2,60,0.00,-RA,FEW,0.00,WeatherDisplay:10.37,2013-11-08 16:32:00,
2013-11-08 11:37:00,41.7,28.0,31.00,NW,316,9.2,9.2,58,0.00,-RA,FEW,0.00,WeatherDisplay:10.37,2013-11-08 16:37:00,
2013-11-08 11:42:00,41.9,28.6,31.00,North,357,7.0,7.0,59,0.00,-RA,FEW,0.00,WeatherDisplay:10.37,2013-11-08 16:42:00,
2013-11-08 11:47:00,42.3,28.1,31.00,North,352,9.2,9.2,57,0.00,-RA,FEW,0.00,WeatherDisplay:10.37,2013-11-08 16:47:00,
2013-11-08 11:52:00,42.4,29.5,31.00,NE,53,7.0,7.0,60,0.00,-RA,FEW,0.00,WeatherDisplay:10.37,2013-11-08 16:52:00,
2013-11-08 11:57:00,43.0,28.8,31.00,West,262,5.8,5.8,57,0.00,-RA,FEW,0.00,WeatherDisplay:10.37,2013-11-08 16:57:00,
2013-11-08 12:02:00,43.0,28.4,31.00,NNW,333,10.0,10.0,56,0.00,-RA,FEW,0.00,WeatherDisplay:10.37,2013-11-08 17:02:00,
2013-11-08 12:07:00,42.5,27.5,30.99,NNW,334,11.5,11.5,55,0.00,-RA,FEW,0.00,WeatherDisplay:10.37,2013-11-08 17:07:00,
2013-11-08 12:12:00,42.7,27.6,30.99,WNW,295,5.8,5.8,55,0.00,-RA,FEW,0.00,WeatherDisplay:10.37,2013-11-08 17:12:00,
2013-11-08 12:17:00,42.1,27.1,30.99,North,354,9.2,9.2,55,0.00,-RA,FEW,0.00,WeatherDisplay:10.37,2013-11-08 17:17:00,
2013-11-08 12:22:00,42.0,27.0,30.99,WNW,298,6.9,6.9,55,0.00,-RA,FEW,0.00,WeatherDisplay:10.37,2013-11-08 17:22:00,
2013-11-08 12:27:00,41.9,26.9,30.98,NW,326,6.9,6.9,55,0.00,-RA,FEW,0.00,WeatherDisplay:10.37,2013-11-08 17:27:00,
2013-11-08 12:32:00,41.8,26.8,30.98,WNW,297,6.9,6.9,55,0.00,-RA,FEW,0.00,WeatherDisplay:10.37,2013-11-08 17:32:00,
2013-11-08 12:37:00,42.2,26.7,30.98,NW,305,10.4,10.4,54,0.00,-RA,FEW,0.00,WeatherDisplay:10.37,2013-11-08 17:37:00,
2013-11-08 12:42:00,42.0,26.5,30.98,NNW,341,5.8,5.8,54,0.00,-RA,FEW,0.00,WeatherDisplay:10.37,2013-11-08 17:42:00,
2013-11-08 12:47:00,42.0,27.0,30.98,WNW,287,9.2,9.2,55,0.00,-RA,FEW,0.00,WeatherDisplay:10.37,2013-11-08 17:47:00,
2013-11-08 12:52:00,42.2,27.6,30.98,NW,309,3.5,3.5,56,0.00,-RA,FEW,0.00,WeatherDisplay:10.37,2013-11-08 17:52:00,
2013-11-08 12:57:00,42.2,27.6,30.98,North,11,8.1,8.1,56,0.00,-RA,FEW,0.00,WeatherDisplay:10.37,2013-11-08 17:57:00,
2013-11-08 13:02:00,42.3,27.7,30.98,SW,215,4.6,4.6,56,0.00,-RA,FEW,0.00,WeatherDisplay:10.37,2013-11-08 18:02:00,
2013-11-08 13:07:00,43.1,28.5,30.99,WNW,288,8.1,8.1,56,0.00,-RA,FEW,0.00,WeatherDisplay:10.37,2013-11-08 18:07:00,
2013-11-08 13:12:00,43.6,28.0,30.99,West,266,10.4,10.4,54,0.00,-RA,FEW,0.00,WeatherDisplay:10.37,2013-11-08 18:12:00,
2013-11-08 13:17:00,43.2,28.1,30.99,WNW,288,7.0,7.0,55,0.00,-RA,FEW,0.00,WeatherDisplay:10.37,2013-11-08 18:17:00,
2013-11-08 13:22:00,42.8,28.2,30.98,NW,313,9.0,9.0,56,0.00,-RA,FEW,0.00,WeatherDisplay:10.37,2013-11-08 18:22:00,
2013-11-08 13:27:00,42.9,28.3,30.98,NW,319,6.0,6.0,56,0.00,-RA,FEW,0.00,WeatherDisplay:10.37,2013-11-08 18:27:00,
2013-11-08 13:32:00,42.8,28.2,30.98,NW,322,4.6,4.6,56,0.00,-RA,FEW,0.00,WeatherDisplay:10.37,2013-11-08 18:32:00,
2013-11-08 13:37:00,42.8,27.3,30.98,NNW,335,5.8,5.8,54,0.00,-RA,FEW,0.00,WeatherDisplay:10.37,2013-11-08 18:37:00,
2013-11-08 13:42:00,43.2,27.7,30.98,NW,323,2.3,2.3,54,0.00,-RA,FEW,0.00,WeatherDisplay:10.37,2013-11-08 18:42:00,
2013-11-08 13:47:00,43.3,27.3,30.98,West,280,5.0,5.0,53,0.00,-RA,FEW,0.00,WeatherDisplay:10.37,2013-11-08 18:47:00,
2013-11-08 13:52:00,42.9,26.5,30.98,NW,325,5.8,5.8,52,0.00,-RA,FEW,0.00,WeatherDisplay:10.37,2013-11-08 18:52:00,
2013-11-08 13:57:00,42.9,26.5,30.98,South,184,3.5,3.5,52,0.00,-RA,FEW,0.00,WeatherDisplay:10.37,2013-11-08 18:57:00,
2013-11-08 14:02:00,42.9,26.9,30.98,WSW,243,6.9,6.9,53,0.00,-RA,FEW,0.00,WeatherDisplay:10.37,2013-11-08 19:02:00,
2013-11-08 14:07:00,43.1,27.1,30.97,WNW,287,6.9,6.9,53,0.00,-RA,FEW,0.00,WeatherDisplay:10.37,2013-11-08 19:07:00,
2013-11-08 14:12:00,43.5,27.0,30.97,SW,214,5.8,5.8,52,0.00,-RA,FEW,0.00,WeatherDisplay:10.37,2013-11-08 19:12:00,
2013-11-08 14:17:00,43.5,27.5,30.97,NNW,330,6.0,6.0,53,0.00,-RA,FEW,0.00,WeatherDisplay:10.37,2013-11-08 19:17:00,
2013-11-08 14:22:00,43.3,27.3,30.97,North,354,3.5,3.5,53,0.00,-RA,FEW,0.00,WeatherDisplay:10.37,2013-11-08 19:22:00,
2013-11-08 14:27:00,43.1,27.6,30.97,NW,317,4.6,4.6,54,0.00,-RA,FEW,0.00,WeatherDisplay:10.37,2013-11-08 19:27:00,
2013-11-08 14:32:00,43.0,27.0,30.97,NW,309,6.9,6.9,53,0.00,-RA,FEW,0.00,WeatherDisplay:10.37,2013-11-08 19:32:00,
2013-11-08 14:37:00,43.1,26.7,30.97,North,357,4.0,4.0,52,0.00,-RA,FEW,0.00,WeatherDisplay:10.37,2013-11-08 19:37:00,
2013-11-08 14:42:00,43.0,26.6,30.97,NW,309,4.6,4.6,52,0.00,-RA,FEW,0.00,WeatherDisplay:10.37,2013-11-08 19:42:00,
2013-11-08 14:47:00,42.9,26.5,30.97,WNW,298,5.0,5.0,52,0.00,-RA,FEW,0.00,WeatherDisplay:10.37,2013-11-08 19:47:00,
2013-11-08 14:52:00,42.9,26.9,30.97,WSW,255,2.3,2.3,53,0.00,-RA,FEW,0.00,WeatherDisplay:10.37,2013-11-08 19:52:00,
2013-11-08 14:57:00,43.0,26.6,30.97,WNW,285,6.9,6.9,52,0.00,-RA,FEW,0.00,WeatherDisplay:10.37,2013-11-08 19:57:00,
2013-11-08 15:02:00,43.0,26.1,30.96,NW,311,5.8,5.8,51,0.00,-RA,FEW,0.00,WeatherDisplay:10.37,2013-11-08 20:02:00,
2013-11-08 15:07:00,43.1,25.7,30.96,WNW,296,4.0,4.0,50,0.00,-RA,FEW,0.00,WeatherDisplay:10.37,2013-11-08 20:07:00,
2013-11-08 15:12:00,43.0,26.1,30.96,NNW,330,3.5,3.5,51,0.00,-RA,FEW,0.00,WeatherDisplay:10.37,2013-11-08 20:12:00,
2013-11-08 15:17:00,43.5,26.6,30.96,WNW,297,2.3,2.3,51,0.00,-RA,FEW,0.00,WeatherDisplay:10.37,2013-11-08 20:17:00,
2013-11-08 15:22:00,43.6,25.7,30.96,WNW,297,6.9,6.9,49,0.00,-RA,FEW,0.00,WeatherDisplay:10.37,2013-11-08 20:22:00,
2013-11-08 15:27:00,43.2,25.8,30.96,NW,317,4.6,4.6,50,0.00,-RA,FEW,0.00,WeatherDisplay:10.37,2013-11-08 20:27:00,
2013-11-08 15:32:00,43.0,26.1,30.96,WNW,301,2.3,2.3,51,0.00,-RA,FEW,0.00,WeatherDisplay:10.37,2013-11-08 20:32:00,
2013-11-08 15:37:00,43.3,26.4,30.96,NW,326,3.0,3.0,51,0.00,-RA,FEW,0.00,WeatherDisplay:10.37,2013-11-08 20:37:00,
2013-11-08 15:42:00,43.6,26.2,30.96,NW,323,2.3,2.3,50,0.00,-RA,FEW,0.00,WeatherDisplay:10.37,2013-11-08 20:42:00,
2013-11-08 15:47:00,44.1,26.6,30.96,WNW,290,2.3,2.3,50,0.00,-RA,FEW,0.00,WeatherDisplay:10.37,2013-11-08 20:47:00,
2013-11-08 15:52:00,44.4,26.4,30.96,WNW,285,4.6,4.6,49,0.00,-RA,FEW,0.00,WeatherDisplay:10.37,2013-11-08 20:52:00,
2013-11-08 15:57:00,44.4,27.4,30.96,North,6,2.3,2.3,51,0.00,-RA,FEW,0.00,WeatherDisplay:10.37,2013-11-08 20:57:00,
2013-11-08 16:02:00,44.4,26.9,30.96,WNW,295,2.3,2.3,50,0.00,-RA,FEW,0.00,WeatherDisplay:10.37,2013-11-08 21:02:00,
2013-11-08 16:07:00,44.7,27.2,30.96,NW,316,9.2,9.2,50,0.00,-RA,FEW,0.00,WeatherDisplay:10.37,2013-11-08 21:07:00,
2013-11-08 16:12:00,44.4,26.4,30.96,WSW,252,7.0,7.0,49,0.00,-RA,FEW,0.00,WeatherDisplay:10.37,2013-11-08 21:12:00,
2013-11-08 16:17:00,44.6,26.6,30.96,SW,226,6.0,6.0,49,0.00,-RA,FEW,0.00,WeatherDisplay:10.37,2013-11-08 21:17:00,
2013-11-08 16:22:00,44.7,26.7,30.96,SW,225,6.9,6.9,49,0.00,-RA,FEW,0.00,WeatherDisplay:10.37,2013-11-08 21:22:00,
2013-11-08 16:27:00,44.6,26.6,30.96,SSW,211,5.8,5.8,49,0.00,-RA,FEW,0.00,WeatherDisplay:10.37,2013-11-08 21:27:00,
2013-11-08 16:32:00,44.7,26.7,30.96,NW,309,2.3,2.3,49,0.00,-RA,FEW,0.00,WeatherDisplay:10.37,2013-11-08 21:32:00,
2013-11-08 16:37:00,44.7,26.7,30.96,SW,214,3.5,3.5,49,0.00,-RA,FEW,0.00,WeatherDisplay:10.37,2013-11-08 21:37:00,
2013-11-08 16:42:00,44.4,26.4,30.97,West,271,8.1,8.1,49,0.00,-RA,FEW,0.00,WeatherDisplay:10.37,2013-11-08 21:42:00,
2013-11-08 16:47:00,44.0,26.5,30.97,SW,218,6.0,6.0,50,0.00,-RA,FEW,0.00,WeatherDisplay:10.37,2013-11-08 21:47:00,
2013-11-08 16:52:00,43.6,26.6,30.96,South,187,3.5,3.5,51,0.00,-RA,FEW,0.00,WeatherDisplay:10.37,2013-11-08 21:52:00,
2013-11-08 16:57:00,43.3,26.4,30.97,SW,228,6.0,6.0,51,0.00,-RA,FEW,0.00,WeatherDisplay:10.37,2013-11-08 21:57:00,
2013-11-08 17:02:00,43.0,26.6,30.96,WSW,257,3.5,3.5,52,0.00,-RA,FEW,0.00,WeatherDisplay:10.37,2013-11-08 22:02:00,
2013-11-08 17:07:00,42.8,26.4,30.96,SSW,205,2.3,2.3,52,0.00,-RA,FEW,0.00,WeatherDisplay:10.37,2013-11-08 22:07:00,
2013-11-08 17:12:00,42.6,26.6,30.96,West,263,2.3,2.3,53,0.00,-RA,FEW,0.00,WeatherDisplay:10.37,2013-11-08 22:12:00,
2013-11-08 17:17:00,42.4,26.5,30.96,SW,224,2.3,2.3,53,0.00,-RA,FEW,0.00,WeatherDisplay:10.37,2013-11-08 22:17:00,
2013-11-08 17:22:00,42.2,26.3,30.96,SSW,210,2.3,2.3,53,0.00,-RA,FEW,0.00,WeatherDisplay:10.37,2013-11-08 22:22:00,
2013-11-08 17:27:00,42.2,26.3,30.96,SSW,203,3.0,3.0,53,0.00,-RA,FEW,0.00,WeatherDisplay:10.37,2013-11-08 22:27:00,
2013-11-08 17:32:00,42.0,26.5,30.96,WSW,238,3.0,3.0,54,0.00,-RA,FEW,0.00,WeatherDisplay:10.37,2013-11-08 22:32:00,
2013-11-08 17:37:00,41.9,26.4,30.96,SSW,208,3.5,3.5,54,0.00,-RA,FEW,0.00,WeatherDisplay:10.37,2013-11-08 22:37:00,
2013-11-08 17:42:00,41.8,26.4,30.96,SW,218,2.3,2.3,54,0.00,-RA,FEW,0.00,WeatherDisplay:10.37,2013-11-08 22:42:00,
2013-11-08 17:47:00,41.6,26.2,30.96,SSW,207,3.5,3.5,54,0.00,-RA,FEW,0.00,WeatherDisplay:10.37,2013-11-08 22:47:00,
2013-11-08 17:52:00,41.5,26.5,30.96,SSW,204,3.5,3.5,55,0.00,-RA,FEW,0.00,WeatherDisplay:10.37,2013-11-08 22:52:00,
2013-11-08 17:57:00,41.3,26.3,30.96,SSW,212,3.5,3.5,55,0.00,-RA,FEW,0.00,WeatherDisplay:10.37,2013-11-08 22:57:00,
2013-11-08 18:02:00,41.2,26.2,30.96,SSW,200,2.3,2.3,55,0.00,-RA,FEW,0.00,WeatherDisplay:10.37,2013-11-08 23:02:00,
2013-11-08 18:07:00,41.1,26.6,30.96,SW,215,2.0,2.0,56,0.00,-RA,FEW,0.00,WeatherDisplay:10.37,2013-11-08 23:07:00,
2013-11-08 18:12:00,40.8,26.7,30.96,SSW,210,1.2,1.2,57,0.00,-RA,FEW,0.00,WeatherDisplay:10.37,2013-11-08 23:12:00,
2013-11-08 18:17:00,40.2,26.6,30.96,SSW,208,0.0,0.0,58,0.00,-RA,FEW,0.00,WeatherDisplay:10.37,2013-11-08 23:17:00,
2013-11-08 18:22:00,39.2,26.5,30.96,SSW,207,0.0,0.0,60,0.00,-RA,FEW,0.00,WeatherDisplay:10.37,2013-11-08 23:22:00,
2013-11-08 18:27:00,38.3,26.8,30.96,SSW,208,1.2,0.0,63,0.00,-RA,FEW,0.00,WeatherDisplay:10.37,2013-11-08 23:27:00,
2013-11-08 18:32:00,38.0,26.9,30.97,SW,214,2.3,2.3,64,0.00,-RA,FEW,0.00,WeatherDisplay:10.37,2013-11-08 23:32:00,
2013-11-08 18:37:00,38.9,27.0,30.97,SSW,203,3.5,3.5,62,0.00,-RA,FEW,0.00,WeatherDisplay:10.37,2013-11-08 23:37:00,
2013-11-08 18:42:00,39.4,26.7,30.97,SW,225,3.5,3.5,60,0.00,-RA,FEW,0.00,WeatherDisplay:10.37,2013-11-08 23:42:00,
2013-11-08 18:47:00,39.6,26.8,30.97,SSW,203,3.5,3.5,60,0.00,-RA,FEW,0.00,WeatherDisplay:10.37,2013-11-08 23:47:00,
2013-11-08 18:52:00,39.7,26.9,30.97,SW,214,2.3,2.3,60,0.00,-RA,FEW,0.00,WeatherDisplay:10.37,2013-11-08 23:52:00,
2013-11-08 18:57:00,39.5,26.8,30.97,SW,215,1.2,0.0,60,0.00,-RA,FEW,0.00,WeatherDisplay:10.37,2013-11-08 23:57:00,
2013-11-08 19:02:00,39.1,26.8,30.97,SW,215,1.0,1.0,61,0.00,-RA,FEW,0.00,WeatherDisplay:10.37,2013-11-09 00:02:00,
2013-11-08 19:07:00,38.3,26.8,30.97,SW,215,0.0,0.0,63,0.00,-RA,FEW,0.00,WeatherDisplay:10.37,2013-11-09 00:07:00,
2013-11-08 19:12:00,37.3,27.0,30.97,SW,215,0.0,0.0,66,0.00,-RA,FEW,0.00,WeatherDisplay:10.37,2013-11-09 00:12:00,
2013-11-08 19:17:00,36.4,26.8,30.96,SW,215,0.0,0.0,68,0.00,-RA,FEW,0.00,WeatherDisplay:10.37,2013-11-09 00:17:00,
2013-11-08 19:22:00,35.7,26.5,30.96,SW,215,0.0,0.0,69,0.00,-RA,FEW,0.00,WeatherDisplay:10.37,2013-11-09 00:22:00,
2013-11-08 19:27:00,35.1,27.0,30.96,SW,215,0.0,0.0,72,0.00,-RA,FEW,0.00,WeatherDisplay:10.37,2013-11-09 00:27:00,
2013-11-08 19:32:00,34.7,26.9,30.96,SW,215,0.0,0.0,73,0.00,-RA,FEW,0.00,WeatherDisplay:10.37,2013-11-09 00:32:00,
2013-11-08 19:37:00,34.5,27.1,30.96,SW,215,0.0,0.0,74,0.00,-RA,FEW,0.00,WeatherDisplay:10.37,2013-11-09 00:37:00,
2013-11-08 19:42:00,34.3,26.9,30.96,SW,215,0.0,0.0,74,0.00,-RA,FEW,0.00,WeatherDisplay:10.37,2013-11-09 00:42:00,
2013-11-08 19:47:00,34.0,26.9,30.96,SW,215,0.0,0.0,75,0.00,-RA,FEW,0.00,WeatherDisplay:10.37,2013-11-09 00:47:00,
2013-11-08 19:52:00,33.9,27.1,30.96,SW,215,0.0,0.0,76,0.00,-RA,FEW,0.00,WeatherDisplay:10.37,2013-11-09 00:52:00,
2013-11-08 19:57:00,33.6,27.2,30.96,SW,215,0.0,0.0,77,0.00,-RA,FEW,0.00,WeatherDisplay:10.37,2013-11-09 00:57:00,
2013-11-08 20:02:00,33.5,27.1,30.96,SW,215,0.0,0.0,77,0.00,-RA,FEW,0.00,WeatherDisplay:10.37,2013-11-09 01:02:00,
2013-11-08 20:07:00,33.5,27.1,30.96,SW,215,0.0,0.0,77,0.00,-RA,FEW,0.00,WeatherDisplay:10.37,2013-11-09 01:07:00,
2013-11-08 20:12:00,33.3,27.2,30.96,SW,215,0.0,0.0,78,0.00,-RA,FEW,0.00,WeatherDisplay:10.37,2013-11-09 01:12:00,
2013-11-08 20:17:00,33.2,27.1,30.96,SW,215,0.0,0.0,78,0.00,-RA,FEW,0.00,WeatherDisplay:10.37,2013-11-09 01:17:00,
2013-11-08 20:22:00,33.2,27.1,30.95,SW,215,0.0,0.0,78,0.00,-RA,FEW,0.00,WeatherDisplay:10.37,2013-11-09 01:22:00,
2013-11-08 20:27:00,33.0,26.9,30.95,SW,215,0.0,0.0,78,0.00,-RA,FEW,0.00,WeatherDisplay:10.37,2013-11-09 01:27:00,
2013-11-08 20:32:00,33.1,27.3,30.95,SW,215,0.0,0.0,79,0.00,-RA,FEW,0.00,WeatherDisplay:10.37,2013-11-09 01:32:00,
2013-11-08 20:37:00,33.1,27.3,30.95,SW,215,0.0,0.0,79,0.00,-RA,FEW,0.00,WeatherDisplay:10.37,2013-11-09 01:37:00,
2013-11-08 20:42:00,33.2,27.4,30.95,SW,215,0.0,0.0,79,0.00,-RA,FEW,0.00,WeatherDisplay:10.37,2013-11-09 01:42:00,
2013-11-08 20:47:00,33.3,27.2,30.95,SW,215,0.0,0.0,78,0.00,-RA,FEW,0.00,WeatherDisplay:10.37,2013-11-09 01:47:00,
2013-11-08 20:52:00,33.3,27.2,30.95,SW,215,0.0,0.0,78,0.00,-RA,FEW,0.00,WeatherDisplay:10.37,2013-11-09 01:52:00,
2013-11-08 20:57:00,33.7,27.6,30.95,South,176,0.0,0.0,78,0.00,-RA,FEW,0.00,WeatherDisplay:10.37,2013-11-09 01:57:00,
2013-11-08 21:02:00,34.0,27.5,30.95,South,176,0.0,0.0,77,0.00,-RA,FEW,0.00,WeatherDisplay:10.37,2013-11-09 02:02:00,
2013-11-08 21:07:00,34.3,27.5,30.94,South,176,0.0,0.0,76,0.00,-RA,FEW,0.00,WeatherDisplay:10.37,2013-11-09 02:07:00,
2013-11-08 21:12:00,34.2,27.4,30.95,South,176,0.0,0.0,76,0.00,-RA,FEW,0.00,WeatherDisplay:10.37,2013-11-09 02:12:00,
2013-11-08 21:17:00,34.0,27.2,30.94,South,176,0.0,0.0,76,0.00,-RA,FEW,0.00,WeatherDisplay:10.37,2013-11-09 02:17:00,
2013-11-08 21:22:00,33.7,27.3,30.94,South,176,0.0,0.0,77,0.00,-RA,FEW,0.00,WeatherDisplay:10.37,2013-11-09 02:22:00,
2013-11-08 21:27:00,33.4,27.3,30.94,South,176,0.0,0.0,78,0.00,-RA,FEW,0.00,WeatherDisplay:10.37,2013-11-09 02:27:00,
2013-11-08 21:32:00,33.2,27.1,30.95,South,176,0.0,0.0,78,0.00,-RA,FEW,0.00,WeatherDisplay:10.37,2013-11-09 02:32:00,
2013-11-08 21:37:00,32.8,26.7,30.94,South,176,0.0,0.0,78,0.00,-RA,FEW,0.00,WeatherDisplay:10.37,2013-11-09 02:37:00,
2013-11-08 21:42:00,32.7,27.2,30.94,South,176,0.0,0.0,80,0.00,-RA,FEW,0.00,WeatherDisplay:10.37,2013-11-09 02:42:00,
2013-11-08 21:47:00,33.0,27.8,30.94,South,188,3.5,3.5,81,0.00,-RA,FEW,0.00,WeatherDisplay:10.37,2013-11-09 02:47:00,
2013-11-08 21:52:00,33.8,28.3,30.95,SSW,205,3.5,3.5,80,0.00,-RA,FEW,0.00,WeatherDisplay:10.37,2013-11-09 02:52:00,
2013-11-08 21:57:00,35.2,29.0,30.95,WSW,242,5.8,5.8,78,0.00,-RA,FEW,0.00,WeatherDisplay:10.37,2013-11-09 02:57:00,
2013-11-08 22:02:00,36.3,28.8,30.95,SW,217,5.0,5.0,74,0.00,-RA,FEW,0.00,WeatherDisplay:10.37,2013-11-09 03:02:00,
2013-11-08 22:07:00,36.7,28.9,30.95,SW,225,3.5,3.5,73,0.00,-RA,FEW,0.00,WeatherDisplay:10.37,2013-11-09 03:07:00,
2013-11-08 22:12:00,36.9,28.7,30.95,West,262,2.3,2.3,72,0.00,-RA,FEW,0.00,WeatherDisplay:10.37,2013-11-09 03:12:00,
2013-11-08 22:17:00,37.0,28.8,30.95,SW,221,2.3,2.3,72,0.00,-RA,FEW,0.00,WeatherDisplay:10.37,2013-11-09 03:17:00,
2013-11-08 22:22:00,37.1,28.9,30.95,SSW,200,3.5,3.5,72,0.00,-RA,FEW,0.00,WeatherDisplay:10.37,2013-11-09 03:22:00,
2013-11-08 22:27:00,37.0,28.8,30.95,SW,218,1.2,0.0,72,0.00,-RA,FEW,0.00,WeatherDisplay:10.37,2013-11-09 03:27:00,
2013-11-08 22:32:00,37.0,29.1,30.95,SSW,192,3.5,3.5,73,0.00,-RA,FEW,0.00,WeatherDisplay:10.37,2013-11-09 03:32:00,
2013-11-08 22:37:00,37.1,29.2,30.94,SSW,210,3.0,3.0,73,0.00,-RA,FEW,0.00,WeatherDisplay:10.37,2013-11-09 03:37:00,
2013-11-08 22:42:00,37.3,29.1,30.94,SSW,205,1.2,1.2,72,0.00,-RA,FEW,0.00,WeatherDisplay:10.37,2013-11-09 03:42:00,
2013-11-08 22:47:00,37.5,29.3,30.94,SW,214,3.5,3.5,72,0.00,-RA,FEW,0.00,WeatherDisplay:10.37,2013-11-09 03:47:00,
2013-11-08 22:52:00,37.7,29.5,30.94,SSW,211,3.5,3.5,72,0.00,-RA,FEW,0.00,WeatherDisplay:10.37,2013-11-09 03:52:00,
2013-11-08 22:57:00,37.9,29.3,30.94,SSW,210,2.3,2.3,71,0.00,-RA,FEW,0.00,WeatherDisplay:10.37,2013-11-09 03:57:00,
2013-11-08 23:02:00,37.9,29.7,30.93,SSW,197,0.0,0.0,72,0.00,-RA,FEW,0.00,WeatherDisplay:10.37,2013-11-09 04:02:00,
2013-11-08 23:07:00,37.8,29.9,30.93,SSE,165,0.0,0.0,73,0.00,-RA,FEW,0.00,WeatherDisplay:10.37,2013-11-09 04:07:00,
2013-11-08 23:12:00,37.7,29.8,30.93,SSE,149,1.2,1.2,73,0.00,-RA,FEW,0.00,WeatherDisplay:10.37,2013-11-09 04:12:00,
2013-11-08 23:17:00,37.3,29.8,30.93,SSE,150,0.0,0.0,74,0.00,-RA,FEW,0.00,WeatherDisplay:10.37,2013-11-09 04:17:00,
2013-11-08 23:22:00,37.2,30.0,30.94,SSE,150,0.0,0.0,75,0.00,-RA,FEW,0.00,WeatherDisplay:10.37,2013-11-09 04:22:00,
2013-11-08 23:27:00,37.2,30.0,30.93,SSE,149,0.0,0.0,75,0.00,-RA,FEW,0.00,WeatherDisplay:10.37,2013-11-09 04:27:00,
2013-11-08 23:32:00,37.2,30.0,30.93,SSE,149,0.0,0.0,75,0.00,-RA,FEW,0.00,WeatherDisplay:10.37,2013-11-09 04:32:00,
2013-11-08 23:37:00,37.3,30.1,30.92,SSW,212,3.0,3.0,75,0.00,-RA,FEW,0.00,WeatherDisplay:10.37,2013-11-09 04:37:00,
2013-11-08 23:42:00,37.6,30.1,30.92,SSW,202,2.3,2.3,74,0.00,-RA,FEW,0.00,WeatherDisplay:10.37,2013-11-09 04:42:00,
2013-11-08 23:47:00,38.0,30.4,30.91,SSW,203,3.5,3.5,74,0.00,-RA,FEW,0.00,WeatherDisplay:10.37,2013-11-09 04:47:00,
2013-11-08 23:52:00,38.3,30.4,30.91,SSE,163,3.5,3.5,73,0.00,-RA,FEW,0.00,WeatherDisplay:10.37,2013-11-09 04:52:00,
2013-11-08 23:57:00,38.4,30.5,30.92,WSW,252,4.0,4.0,73,0.00,-RA,FEW,0.00,WeatherDisplay:10.37,2013-11-09 04:57:00,